Waarnemingen

Advertentie
Mijn weer
Charleroi/Gosselies, België (6449): temperatuur & dauwpunt: 18.09.2020 20:00:00 - 24.09.2020 20:00:00 (CEST)Charleroi/Gosselies, België (6449): windsnelheid & windstoten: 18.09.2020 20:00:00 - 24.09.2020 20:00:00 (CEST)Charleroi/Gosselies, België (6449): windrichting: 18.09.2020 20:00:00 - 24.09.2020 20:00:00 (CEST)Charleroi/Gosselies, België (6449): luchtdruk: 18.09.2020 20:00:00 - 24.09.2020 20:00:00 (CEST)Charleroi/Gosselies, België (6449): zicht: 18.09.2020 20:00:00 - 24.09.2020 20:00:00 (CEST)
Datum & Tijd tt [°C] td [°C] ff [km/u] ff [kn] fx [km/u] fx [kn] dd ppp [hPa] vv [km]
24.09.2020 20:00:00 13,2 11,1 9 5 - - ZZO 998,3 10
24.09.2020 19:00:00 13,2 11,0 13 7 25 14 ZZW 999,3 10
24.09.2020 18:00:00 13,5 10,9 13 7 32 18 Z 1000,3 10
24.09.2020 17:00:00 15,0 8,5 15 8 - - Z 1001,0 10
24.09.2020 16:00:00 16,5 6,9 24 13 47 25 ZZW 1001,5 10
24.09.2020 15:00:00 16,6 6,6 34 18 50 27 ZZW 1002,3 10
24.09.2020 14:00:00 15,7 7,1 34 18 - - ZZW 1003,1 10
24.09.2020 13:00:00 14,6 7,1 31 17 47 25 ZZW 1003,8 10
24.09.2020 12:00:00 14,6 7,0 29 16 50 27 ZZW 1004,4 10
24.09.2020 11:00:00 13,0 7,3 29 16 - - ZZW 1004,7 10
24.09.2020 10:00:00 11,4 8,8 26 14 40 21 ZZW 1005,1 10
24.09.2020 09:00:00 10,1 8,4 26 14 36 19 ZZW 1005,4 10
24.09.2020 08:00:00 9,9 8,3 21 11 - - ZZW 1005,1 10
24.09.2020 07:00:00 10,7 8,7 24 13 36 19 ZW 1005,0 10
24.09.2020 06:00:00 11,0 9,3 24 13 36 19 ZW 1004,8 10
24.09.2020 05:00:00 11,0 8,9 26 14 - - ZW 1004,2 10
24.09.2020 04:00:00 11,6 9,6 24 13 36 19 ZW 1003,6 10
24.09.2020 03:00:00 12,2 10,5 22 12 29 16 WZW 1003,0 10
24.09.2020 02:00:00 12,2 11,1 21 11 - - WZW 1002,2 10
24.09.2020 01:00:00 15,3 14,4 18 10 32 18 ZZW 1000,7 10
24.09.2020 00:00:00 15,1 14,2 22 12 32 18 ZZW 1000,9 10
23.09.2020 23:00:00 15,2 14,1 21 11 - - ZZW 1001,6 6
23.09.2020 22:00:00 15,6 14,1 13 7 25 14 WZW 1001,8 3,5
23.09.2020 21:00:00 17,1 13,6 13 7 32 18 Z 1001,8 10
23.09.2020 20:00:00 18,0 13,6 21 11 - - ZZW 1002,6 10
23.09.2020 19:00:00 19,3 12,4 18 10 43 23 ZZW 1002,8 10
23.09.2020 18:00:00 20,3 11,3 21 11 43 23 ZZW 1003,4 10
23.09.2020 17:00:00 20,6 10,7 29 16 - - ZW 1003,8 10
23.09.2020 16:00:00 20,3 10,5 26 14 47 25 ZW 1004,3 10
23.09.2020 15:00:00 20,2 10,9 29 16 47 25 ZZW 1004,7 10
23.09.2020 14:00:00 21,9 11,4 29 16 - - ZW 1004,9 10
23.09.2020 13:00:00 20,4 11,9 28 15 47 25 ZZW 1005,6 10
23.09.2020 12:00:00 20,3 11,9 28 15 36 19 ZZW 1005,8 10
23.09.2020 11:00:00 18,2 12,1 22 12 - - ZZW 1006,5 10
23.09.2020 10:00:00 15,9 11,2 21 11 36 19 ZZW 1006,6 10
23.09.2020 09:00:00 15,0 11,9 15 8 25 14 Z 1006,8 10
23.09.2020 08:00:00 14,1 10,5 11 6 - - ZZW 1006,8 10
23.09.2020 07:00:00 13,2 9,4 9 5 14 8 Z 1007,0 10
23.09.2020 06:00:00 13,3 8,4 8 4 11 6 ZW 1007,2 10
23.09.2020 05:00:00 12,6 7,7 5 3 - - Z 1007,4 10
23.09.2020 04:00:00 12,9 7,6 9 5 18 10 ZZW 1007,8 10
23.09.2020 03:00:00 13,6 7,5 11 6 14 8 ZZW 1008,0 11
23.09.2020 02:00:00 14,7 7,7 9 5 - - ZW 1007,9 10
23.09.2020 01:00:00 15,2 8,3 9 5 11 6 ZW 1008,2 10
23.09.2020 00:00:00 15,3 9,5 5 3 7 4 ZZW 1008,3 10
22.09.2020 23:00:00 16,4 9,4 5 3 - - ZZW 1008,3 10
22.09.2020 22:00:00 16,4 9,2 4 2 7 4 ZW 1008,4 10
22.09.2020 21:00:00 18,7 9,2 5 3 11 6 W 1008,3 10
22.09.2020 20:00:00 19,4 9,0 5 3 - - W 1008,2 10
22.09.2020 19:00:00 21,7 8,1 8 4 14 8 W 1008,0 10
22.09.2020 18:00:00 23,3 7,8 8 4 14 8 WNW 1008,0 10
22.09.2020 17:00:00 23,9 7,9 8 4 - - NW 1008,7 10
22.09.2020 16:00:00 23,5 8,1 9 5 14 8 NW 1009,4 10
22.09.2020 15:00:00 23,8 8,8 4 2 14 8 - 1009,9 10
22.09.2020 14:00:00 23,5 7,2 2 1 - - - 1010,5 10
22.09.2020 13:00:00 22,1 8,8 5 3 11 6 NNO 1011,1 10
22.09.2020 12:00:00 20,4 10,1 4 2 7 4 - 1011,7 10
22.09.2020 11:00:00 18,6 10,9 2 1 - - - 1012,5 8
22.09.2020 10:00:00 15,1 11,8 4 2 7 4 - 1012,8 5
22.09.2020 09:00:00 11,7 9,6 5 3 11 6 Z 1013,0 5
22.09.2020 08:00:00 10,3 9,4 4 2 - - ZZW 1013,0 4,8
22.09.2020 07:00:00 10,3 9,6 4 2 7 4 - 1013,2 2,8
22.09.2020 06:00:00 11,4 10,6 2 1 4 2 - 1013,4 2,3
22.09.2020 05:00:00 11,7 10,6 2 1 - - - 1013,6 4,0
22.09.2020 04:00:00 12,1 9,7 2 1 7 4 - 1013,9 8
22.09.2020 03:00:00 13,2 9,6 4 2 4 2 - 1014,2 8
22.09.2020 02:00:00 13,3 8,4 2 1 - - - 1014,5 10
22.09.2020 01:00:00 14,8 8,6 2 1 7 4 - 1014,9 10
22.09.2020 00:00:00 14,9 9,1 2 1 11 6 - 1015,1 10
21.09.2020 23:00:00 17,1 8,9 5 3 - - N 1014,9 10
21.09.2020 22:00:00 17,4 8,2 4 2 11 6 N 1014,9 10
21.09.2020 21:00:00 19,1 8,0 8 4 11 6 N 1014,7 10
21.09.2020 20:00:00 20,5 7,7 8 4 - - N 1014,4 10
21.09.2020 19:00:00 22,7 6,3 9 5 14 8 NNW 1014,3 10
21.09.2020 18:00:00 23,9 6,6 11 6 18 10 N 1014,3 10
21.09.2020 17:00:00 24,3 5,6 8 4 - - NNO 1014,6 10
21.09.2020 16:00:00 23,5 5,5 2 1 14 8 - 1015,0 10
21.09.2020 15:00:00 24,0 5,6 5 3 14 8 NNO 1015,3 10
21.09.2020 14:00:00 22,6 6,2 9 5 - - NNW 1015,9 10
21.09.2020 13:00:00 21,6 7,3 4 2 11 6 - 1016,2 10
21.09.2020 12:00:00 19,9 7,6 5 3 14 8 NO 1016,5 10
21.09.2020 11:00:00 17,5 7,0 11 6 - - NO 1016,8 10
21.09.2020 10:00:00 15,4 7,7 2 1 7 4 - 1016,9 10
21.09.2020 09:00:00 13,7 7,8 0 0 7 4 N 1017,0 10
21.09.2020 08:00:00 9,9 6,4 4 2 - - Z 1017,1 10
21.09.2020 07:00:00 10,0 6,1 8 4 11 6 ONO 1016,9 10
21.09.2020 06:00:00 9,5 5,6 5 3 11 6 NNO 1017,0 10
21.09.2020 05:00:00 10,0 5,4 5 3 - - NNO 1017,0 10
21.09.2020 04:00:00 11,0 5,7 5 3 7 4 NNO 1017,0 10
21.09.2020 03:00:00 11,8 5,5 4 2 11 6 ONO 1017,1 10
21.09.2020 02:00:00 12,3 5,9 8 4 - - NO 1017,1 10
21.09.2020 01:00:00 13,3 5,7 8 4 14 8 NO 1017,3 10
21.09.2020 00:00:00 15,1 6,0 11 6 22 12 NNO 1017,4 10
20.09.2020 23:00:00 16,4 4,6 11 6 - - NNO 1017,4 10
20.09.2020 22:00:00 17,6 5,3 9 5 14 8 NNO 1017,2 10
20.09.2020 21:00:00 18,2 5,3 9 5 18 10 NNO 1016,9 10
20.09.2020 20:00:00 20,1 5,5 15 8 - - NO 1016,3 10
20.09.2020 19:00:00 22,6 5,0 15 8 25 14 NNO 1015,7 10
20.09.2020 18:00:00 23,5 3,2 18 10 25 14 NO 1015,4 10
20.09.2020 17:00:00 24,1 4,3 16 9 - - NO 1015,4 10
20.09.2020 16:00:00 25,4 3,9 18 10 25 14 NNO 1015,3 10
20.09.2020 15:00:00 24,8 5,1 18 10 25 14 NO 1015,6 10
20.09.2020 14:00:00 24,3 5,6 18 10 - - NO 1015,9 10
20.09.2020 13:00:00 24,3 4,6 18 10 29 16 ONO 1016,0 10
20.09.2020 12:00:00 23,4 5,7 18 10 25 14 NO 1016,1 10
20.09.2020 11:00:00 21,5 10,1 11 6 - - NO 1016,3 10
20.09.2020 10:00:00 20,7 10,9 9 5 11 6 NO 1016,0 10
20.09.2020 09:00:00 19,0 11,0 4 2 11 6 - 1015,8 10
20.09.2020 08:00:00 16,7 10,9 5 3 - - ONO 1015,5 10
20.09.2020 07:00:00 16,4 10,6 9 5 11 6 ONO 1015,7 10
20.09.2020 06:00:00 16,5 12,2 8 4 7 4 NNO 1015,7 10
20.09.2020 05:00:00 18,4 11,5 4 2 - - Z 1015,6 10
20.09.2020 04:00:00 18,8 11,3 2 1 7 4 - 1015,6 10
20.09.2020 03:00:00 18,3 11,6 5 3 7 4 ONO 1015,7 10
20.09.2020 02:00:00 18,0 11,6 5 3 - - NO 1015,6 10
20.09.2020 01:00:00 19,0 11,7 9 5 11 6 NO 1015,7 10
20.09.2020 00:00:00 20,6 11,9 9 5 14 8 ONO 1015,5 10
19.09.2020 23:00:00 21,3 12,4 11 6 - - NO 1015,6 10
19.09.2020 22:00:00 22,6 12,5 8 4 22 12 ONO 1015,2 10
19.09.2020 21:00:00 23,4 12,8 15 8 25 14 ONO 1014,9 10
19.09.2020 20:00:00 24,5 12,7 16 9 - - ONO 1014,5 10
19.09.2020 19:00:00 25,8 13,2 24 13 32 18 NO 1014,0 10
19.09.2020 18:00:00 28,0 11,7 9 5 18 10 OZO 1013,9 10
19.09.2020 17:00:00 27,8 11,4 9 5 - - Z 1014,4 10
19.09.2020 16:00:00 28,1 11,4 8 4 22 12 - 1014,9 10
19.09.2020 15:00:00 28,0 11,5 11 6 22 12 ZO 1015,4 10
19.09.2020 14:00:00 27,2 12,0 7 4 - - ZZW 1016,0 30
19.09.2020 13:00:00 25,3 11,9 13 7 22 12 Z 1016,5 10
19.09.2020 12:00:00 23,5 11,9 9 5 18 10 ZO 1016,8 10
19.09.2020 11:00:00 21,1 11,2 9 5 - - ZO 1017,1 10
19.09.2020 10:00:00 18,0 10,1 9 5 14 8 ZO 1017,3 10
19.09.2020 09:00:00 15,8 8,8 9 5 14 8 O 1017,1 10
19.09.2020 08:00:00 14,0 8,4 9 5 - - O 1017,3 10
19.09.2020 07:00:00 13,5 8,2 11 6 14 8 ONO 1017,0 10
19.09.2020 06:00:00 13,3 8,4 9 5 18 10 ONO 1017,2 10
19.09.2020 05:00:00 13,5 8,6 11 6 - - ONO 1017,3 10
19.09.2020 04:00:00 13,8 9,0 13 7 18 10 NO 1017,7 10
19.09.2020 03:00:00 14,1 8,9 11 6 14 8 NO 1018,4 10
19.09.2020 02:00:00 15,0 9,0 9 5 - - ONO 1018,6 10
19.09.2020 01:00:00 16,8 9,4 15 8 22 12 O 1018,9 10
19.09.2020 00:00:00 16,3 10,0 15 8 18 10 ONO 1019,3 10
18.09.2020 23:00:00 18,2 10,1 13 7 - - O 1019,2 10
18.09.2020 22:00:00 18,5 10,0 15 8 29 16 ONO 1019,3 10
18.09.2020 21:00:00 19,6 10,3 18 10 25 14 NO 1018,6 10
18.09.2020 20:00:00 20,7 10,6 21 11 - - NO 1018,5 10

tt = temperatuur
td = dauwpunt
ff = windsnelheid
fx = windstoten
dd = windrichting
ppp = luchtdruk
vv = zicht

Weerstations in de omgeving